Location: Devore Heights
(34.2372°N, 117.4156°W)
Time: 19:38:40
(UTC+00:00)

S-56A Canister/Altair - Pass Details

Date: 13 September 2024
Orbit: 636 x 2487 km, 38.9° (Epoch: 14 October)

Event Time Altitude Azimuth Distance (km) Brightness Sun altitude
Rises 02:53:55 0° 248° (WSW) 3,239 11.7 -11.9°
Reaches altitude 10° 02:56:01 10° 248° (WSW) 2,451 11.0 -12.4°
Maximum altitude 03:01:47 90° 234° (SW) 1,076 8.2 -13.5°
Enters shadow 03:10:15 11° 70° (ENE) 3,529 10.4 -15.2°
Drops below altitude 10° 03:10:36 10° 70° (ENE) 3,651 - -15.3°
Sets 03:14:22 0° 71° (ENE) 4,942 - -16.0°
